Dati Storici

Data ora Umidita' aria (%) Temperatura aria (°C) Rad globale (W/m²) Gonioanemometro (°) Tacoanemometro (m/s) Pioggia (mm)
02-07-2020 03:30 91.9 % 21.955 165.98 0.731 0 0
02-07-2020 03:20 94.5 % 21.813 10.223 -0.013 0 0
02-07-2020 03:10 95.7 % 21.817 337.77 1.111 0 0
02-07-2020 03:00 97.5 % 21.818 357.875 1.471 0 0
02-07-2020 02:50 97.7 % 21.876 308.113 -0.007 0 0
02-07-2020 02:40 97.7 % 21.582 324.109 -0.008 0 0
02-07-2020 02:30 97.7 % 21.587 349.541 0.421 0 0
02-07-2020 02:20 97.7 % 21.704 25.448 0.903 0 0
02-07-2020 02:10 97.7 % 21.709 51.816 -0.01 0 0
02-07-2020 02:00 97.7 % 21.807 11.42 -0.01 0 0
02-07-2020 01:50 97.7 % 21.798 43.41 -0.008 0 0
02-07-2020 01:40 97.7 % 21.703 -0.19 -0.008 0 0
02-07-2020 01:30 97.7 % 21.671 37.916 0.232 0 0
02-07-2020 01:20 97.7 % 21.64 350.687 -0.011 0 0
02-07-2020 01:10 97.7 % 21.69 60.043 0.742 0 0
02-07-2020 01:00 97.7 % 21.603 20.997 1.161 0 0
02-07-2020 00:50 97.7 % 21.801 45.652 0.126 0 0
02-07-2020 00:40 97.7 % 22.157 38.921 1.363 0 0
02-07-2020 00:30 97.7 % 22.217 329.537 0.565 0 0
02-07-2020 00:20 97.7 % 22.422 329.812 0.532 0 0

I dati sono presentati in modo automatico a scopo informativo. In seguito a verifica i dati possono subire modifiche o essere invalidati e non riportati negli archivi definitivi.